Find DSCS III B-8

NORAD ID: 26052 Int'l Des: 2000-001 Owner: AFSMC/DISA Country: US operational
HEOCIRCULAR

Current View

Loading 3D Globe...

About DSCS III B-8

Description loading...

Upcoming Passes

Passes for default location (London). Set your location on the main map for personalized predictions.

Altitude History

Loading altitude history...

Two-Line Element Set

1 26052U 00001A 26149.76638572 .00000064 00000-0 00000-0 0 9992
2 26052 11.8775 32.5968 0006178 23.8833 155.5413 0.99110183 32739
Epoch: May 29, 2026 • Age: 25 hours

Current Status

Altitude 36141.0 km
Velocity 3.06 km/s
Sub-Earth Point -2.43°S, 44.25°E
Launch Date Jan 21, 2000
Age 26.3 years
Type other

Technical Details

Classification Payload
Mass 1232.00 kg
Dry Mass 900.00 kg
Total Mass 1232.00 kg
Length 2.10 m
Diameter 1.90 m
Span 9.50 m
Shape Box + 2 Pan
Manufacturer LMVF
Bus Type DSCS III
Phase Status Unknown Transfer Status
Owner/State AFSMC/DISA/US

Most Searched